Regional Weather Roundup
Issued by NWS

Home | Current Version | Previous Version | Graphics & Text | Print | Product List | Glossary On
Versions: 1 2 3 4 5 6 7 8 9 10 11 12 13 14 15 16 17 18 19 20 21 22 23 24 25 26 27 28 29 30 31 32 33 34 35 36 37 38 39 40 41 42 43 44 45 46 47 48 49 50
075
ASUS43 KLSX 171207
RWRMO

WEATHER SUMMARY FOR MISSOURI
NATIONAL WEATHER SERVICE SPRINGFIELD MO
700 AM CDT THU AUG 17 2017

NOTE: "FAIR" INDICATES FEW OR NO CLOUDS BELOW 12,000 FEET WITH NO
       SIGNIFICANT WEATHER AND/OR OBSTRUCTIONS TO VISIBILITY.
       CURRENT SKY AND/OR WEATHER CONDITIONS ARE NOT AVAILABLE FOR
       CHILLICOTHE AND FARMINGTON.

MOZ001>031-035>038-043-044-053-054-171300-
...NORTHERN AND WESTERN MISSOURI...

CITY           SKY/WX    TMP DP  RH WIND       PRES   REMARKS
KANSAS CTY INT PTCLDY    64  62  93 SW6       29.92R
6HR MIN TEMP:  63; 6HR MAX TEMP:  69;

KANSAS C DTWN  CLOUDY    69  65  86 W5        29.91R
6HR MIN TEMP:  67; 6HR MAX TEMP:  71;

LEE`S SUMMIT   CLOUDY    67  67 100 W5        29.93R
6HR MIN TEMP:  67; 6HR MAX TEMP:  69;

ST JOSEPH      FOG       63  63 100 W6        29.90R VSB 3/4
6HR MIN TEMP:  63; 6HR MAX TEMP:  71;

CHILLICOTHE      N/A     67  65  93 NW6       29.89R
6HR MIN TEMP:  67; 6HR MAX TEMP:  73;

KIRKSVILLE     CLOUDY    69  67  93 W9        29.85R
6HR MIN TEMP:  69; 6HR MAX TEMP:  72;


$$
MOZ066>068-077>081-088>096-101>105-171300-
...SOUTHWEST MISSOURI...

CITY           SKY/WX    TMP DP  RH WIND       PRES   REMARKS
SPRINGFIELD    CLOUDY    67  67 100 CALM      29.93S
6HR MIN TEMP:  67; 6HR MAX TEMP:  68; 6HR PCP:  0.01;

JOPLIN         CLOUDY    70  70 100 SW8       29.94R
6HR MIN TEMP:  69; 6HR MAX TEMP:  70; 6HR PCP: TRACE;

BRANSON        MOCLDY    66  66 100 CALM      29.96R

$$
MOZ032>034-039>042-045>050-055>058-069>072-171300-
...CENTRAL MISSOURI...

CITY           SKY/WX    TMP DP  RH WIND       PRES   REMARKS
COLUMBIA       CLOUDY    69  67  93 SW13      29.90R
6HR MIN TEMP:  67; 6HR MAX TEMP:  69; 6HR PCP:  0.01;

JEFFERSON CITY CLOUDY    70  69  97 S5        29.90S
6HR MIN TEMP:  68; 6HR MAX TEMP:  70; 6HR PCP:  0.01;

ROLLA          PTCLDY    66  66 100 S9        29.94R
6HR MIN TEMP:  64; 6HR MAX TEMP:  66; 6HR PCP:  0.07;

SEDALIA        CLOUDY    70  70 100 W7        29.92R
6HR MIN TEMP:  69; 6HR MAX TEMP:  70;

WARRENSBURG    CLOUDY    68  64  88 SW7       29.91R
OSAGE BEACH    CLOUDY    67  66  97 SW5       29.93R

$$
MOZ051-052-059>065-171300-
...EAST CENTRAL MISSOURI...

CITY           SKY/WX    TMP DP  RH WIND       PRES   REMARKS
ST LOUIS INTL  MOCLDY    69  68  96 SW10      29.89S
6HR MIN TEMP:  69; 6HR MAX TEMP:  71; 6HR PCP:  0.09;

SPIRIT OF STL  MOCLDY    69  67  93 SW5       29.88S
6HR MIN TEMP:  68; 6HR MAX TEMP:  71; 6HR PCP:  0.08;

ST CHARLES     CLEAR     67  67 100 S7        29.87S
6HR MIN TEMP:  67; 6HR MAX TEMP:  71; 6HR PCP:  0.04;


$$
MOZ072>076-082>087-097>100-106>115-171300-
...SOUTH CENTRAL AND SOUTHEAST MISSOURI...

CITY           SKY/WX    TMP DP  RH WIND       PRES   REMARKS
CAPE GIRARDEAU MOCLDY    74  71  91 S7        29.91R
6HR MIN TEMP:  71; 6HR MAX TEMP:  77; 6HR PCP:  0.04;

FARMINGTON     PTCLDY    67  67 100 MISG      29.94R
6HR MIN TEMP:  67; 6HR MAX TEMP:  72; 6HR PCP:  0.33;

POPLAR BLUFF   CLOUDY    74  73  97 SW7       29.93R
6HR MIN TEMP:  73; 6HR MAX TEMP:  78; 6HR PCP:  0.09;

WEST PLAINS    CLOUDY    68  67  96 CALM      29.97S
6HR MIN TEMP:  68; 6HR MAX TEMP:  79; 6HR PCP:  0.40;


$$



USA.gov is the U.S. government's official web portal to all federal, state and local government web resources and services.